Regional Weather Roundup
Issued by NWS

Home | Current Version | Previous Version | Text Only | Print | Product List | Glossary On
Versions: 1 2 3 4 5 6 7 8 9 10 11 12 13 14 15 16 17 18 19 20 21 22 23 24 25 26 27 28 29 30 31 32 33 34 35 36 37 38 39 40 41 42 43 44 45 46 47 48 49 50
000
ASUS45 KBOI 211610
RWRID
WEATHER ROUNDUP FOR IDAHO
NATIONAL WEATHER SERVICE BOISE ID
1000 AM MDT SUN SEP 21 2014

NOTE: "FAIR" INDICATES FEW OR NO CLOUDS BELOW 12000 FEET
WITH NO SIGNIFICANT WEATHER AND/OR OBSTRUCTIONS TO VISIBILITY

IDZ012-014-211700-
SOUTHWEST IDAHO


CITY           SKY/WX    TMP DP  RH WIND       PRES   REMARKS
BOISE          MOSUNNY   70  44  39 SE8       30.05R
CALDWELL       MOSUNNY   63  45  51 SE6       30.06R
MOUNTAIN HOME  PTSUNNY   68  44  42 E17       30.05S
$$

IDZ016-017-211700-
SOUTHCENTRAL IDAHO


CITY           SKY/WX    TMP DP  RH WIND       PRES   REMARKS
BURLEY         CLOUDY    58  47  66 S3        30.13R
JEROME         CLOUDY    61  44  53 E9        30.13R
TWIN FALLS     LGT RAIN  65  45  48 S5        30.13R
$$

IDZ019>023-211700-
SOUTHEAST IDAHO


CITY           SKY/WX    TMP DP  RH WIND       PRES   REMARKS
IDAHO FALLS    MOSUNNY   65  47  52 N7        30.19R
POCATELLO      SUNNY     63  47  55 N5        30.16S
REXBURG        MOSUNNY   64  44  48 VRB3      30.21R
$$

IDZ006-010-011-018-031-032-211700-
CENTRAL IDAHO MOUNTAINS


CITY           SKY/WX    TMP DP  RH WIND       PRES   REMARKS
MCCALL         PTSUNNY   51  42  71 CALM      30.16R
HAILEY         PTSUNNY   63  43  48 NW9       30.20R
STANLEY          N/A     52  36  54 NE3       30.29F
SALMON         MOSUNNY   54  43  66 CALM      30.20S
CHALLIS        PTSUNNY   56  44  64 NE3       30.23S
$$

IDZ002-004-006-007-026-211700-
NORTHERN IDAHO


CITY           SKY/WX    TMP DP  RH WIND       PRES   REMARKS
LEWISTON       SUNNY     63  44  50 NE3       29.99S
LOWELL           N/A     54  49  83 N3        30.06F
COEUR D`ALENE  SUNNY     63  46  55 NE16      30.03F
MULLAN PASS    SUNNY     57  37  47 SE14G23   30.21F
$$


USA.gov is the U.S. government's official web portal to all federal, state and local government web resources and services.